172UZ KOGD-

Flight info

Callsign 172UZ
Flight time N/A
Altitude VFR
Route /W
Aircraft C172/L-DOV/C

Departure

Time 2026-04-23 02:33
Airport Ogden Hinckley Airport (KOGD)

Arrival

Time N/A
Airport -
Time Latitude Longitude Altitude Speed Heading
2026-04-23 02:32 41.18296 -112.18201 8205 ft 114 kts 250°
2026-04-23 02:33 41.17889 -112.19202 8187 ft 132 kts 242°
2026-04-23 02:33 41.17391 -112.20160 8510 ft 123 kts 234°
2026-04-23 02:33 41.16811 -112.21009 8621 ft 131 kts 234°
2026-04-23 02:33 41.16217 -112.21965 8716 ft 135 kts 236°
2026-04-23 02:34 41.15659 -112.22990 8793 ft 138 kts 241°
2026-04-23 02:34 41.15105 -112.24046 8899 ft 140 kts 238°
2026-04-23 02:34 41.14527 -112.25087 9028 ft 139 kts 239°
2026-04-23 02:34 41.13966 -112.26129 9164 ft 139 kts 239°
2026-04-23 02:35 41.13409 -112.27169 9312 ft 138 kts 239°
2026-04-23 02:35 41.12856 -112.28199 9459 ft 137 kts 239°
2026-04-23 02:35 41.12306 -112.29226 9606 ft 136 kts 239°
2026-04-23 02:35 41.11758 -112.30250 9748 ft 136 kts 239°
2026-04-23 02:36 41.11211 -112.31272 9895 ft 136 kts 239°
2026-04-23 02:36 41.10664 -112.32291 10018 ft 135 kts 239°
2026-04-23 02:36 41.10119 -112.33309 10143 ft 135 kts 239°
2026-04-23 02:36 41.09574 -112.34326 10263 ft 135 kts 239°
2026-04-23 02:37 41.09032 -112.35337 10383 ft 135 kts 239°
2026-04-23 02:37 41.08492 -112.36348 10506 ft 134 kts 239°
2026-04-23 02:37 41.08126 -112.37028 10578 ft 134 kts 239°
2026-04-23 02:37 41.07587 -112.38032 10685 ft 133 kts 239°
2026-04-23 02:38 41.07051 -112.39032 10796 ft 133 kts 239°
2026-04-23 02:38 41.06516 -112.40029 10898 ft 133 kts 239°
2026-04-23 02:38 41.05981 -112.41023 11003 ft 132 kts 239°
2026-04-23 02:38 41.05448 -112.42016 11117 ft 132 kts 239°
2026-04-23 02:39 41.04915 -112.43008 11222 ft 132 kts 239°
2026-04-23 02:39 41.04382 -112.44000 11321 ft 132 kts 239°
2026-04-23 02:39 41.03850 -112.44988 11431 ft 131 kts 239°
2026-04-23 02:39 41.03329 -112.45958 11536 ft 131 kts 239°
2026-04-23 02:40 41.02801 -112.46939 11636 ft 131 kts 239°
2026-04-23 02:40 41.02274 -112.47919 11738 ft 131 kts 240°
2026-04-23 02:40 41.01740 -112.48913 11853 ft 135 kts 240°
2026-04-23 02:40 41.01184 -112.49946 11995 ft 139 kts 240°
2026-04-23 02:41 41.00615 -112.51001 12147 ft 142 kts 239°
2026-04-23 02:41 41.00039 -112.52070 12302 ft 144 kts 239°
2026-04-23 02:41 40.99455 -112.53153 12425 ft 147 kts 239°
2026-04-23 02:41 40.98843 -112.54291 12437 ft 156 kts 239°
2026-04-23 02:42 40.98201 -112.55481 12436 ft 161 kts 239°
2026-04-23 02:42 40.97540 -112.56703 12439 ft 165 kts 239°
2026-04-23 02:42 40.96867 -112.57947 12439 ft 167 kts 238°
2026-04-23 02:42 40.96187 -112.59205 12437 ft 168 kts 238°
2026-04-23 02:43 40.95495 -112.60487 12439 ft 170 kts 238°
2026-04-23 02:43 40.94807 -112.61759 12439 ft 170 kts 238°
2026-04-23 02:43 40.94118 -112.63033 12441 ft 170 kts 238°
2026-04-23 02:43 40.93428 -112.64310 12443 ft 171 kts 238°
2026-04-23 02:44 40.92735 -112.65589 12442 ft 171 kts 239°
2026-04-23 02:44 40.92042 -112.66869 12441 ft 171 kts 238°
2026-04-23 02:44 40.91347 -112.68150 12444 ft 171 kts 238°
2026-04-23 02:44 40.90655 -112.69429 12442 ft 171 kts 239°
2026-04-23 02:45 40.89962 -112.70707 12440 ft 171 kts 238°
2026-04-23 02:45 40.89269 -112.71985 12442 ft 171 kts 238°
2026-04-23 02:45 40.88575 -112.73264 12441 ft 171 kts 238°
2026-04-23 02:45 40.87880 -112.74544 12444 ft 171 kts 238°
2026-04-23 02:46 40.87188 -112.75816 12434 ft 170 kts 238°
2026-04-23 02:46 40.86501 -112.77073 12446 ft 169 kts 239°
2026-04-23 02:46 40.85820 -112.78337 12438 ft 169 kts 239°
2026-04-23 02:46 40.85146 -112.79577 12441 ft 164 kts 239°
2026-04-23 02:47 40.84476 -112.80807 12448 ft 166 kts 239°
2026-04-23 02:47 40.83800 -112.82050 12443 ft 166 kts 239°
2026-04-23 02:47 40.83120 -112.83303 12453 ft 169 kts 238°
2026-04-23 02:47 40.82428 -112.84573 12452 ft 171 kts 238°
2026-04-23 02:48 40.81730 -112.85851 12454 ft 172 kts 239°
2026-04-23 02:48 40.81033 -112.87130 12463 ft 172 kts 239°
2026-04-23 02:48 40.80334 -112.88410 12458 ft 171 kts 239°
2026-04-23 02:48 40.79639 -112.89682 12461 ft 171 kts 239°
2026-04-23 02:49 40.79028 -112.91032 12461 ft 168 kts 252°
2026-04-23 02:49 40.78768 -112.92527 12465 ft 167 kts 265°
2026-04-23 02:49 40.78677 -112.94059 12461 ft 168 kts 266°
2026-04-23 02:49 40.78562 -112.95589 12462 ft 168 kts 266°
2026-04-23 02:50 40.78453 -112.97119 12461 ft 167 kts 266°
2026-04-23 02:50 40.78343 -112.98647 12465 ft 168 kts 266°
2026-04-23 02:50 40.78235 -113.00179 12461 ft 167 kts 266°
2026-04-23 02:50 40.78125 -113.01707 12465 ft 167 kts 266°
2026-04-23 02:51 40.78016 -113.03237 12466 ft 168 kts 266°
2026-04-23 02:51 40.77907 -113.04773 12466 ft 168 kts 266°
2026-04-23 02:51 40.77796 -113.06314 12465 ft 169 kts 266°
2026-04-23 02:51 40.77686 -113.07855 12470 ft 169 kts 266°
2026-04-23 02:52 40.77574 -113.09395 12470 ft 169 kts 266°
2026-04-23 02:52 40.77465 -113.10934 12473 ft 168 kts 266°
2026-04-23 02:52 40.77352 -113.12471 12470 ft 168 kts 266°
2026-04-23 02:52 40.77243 -113.14009 12468 ft 168 kts 266°
2026-04-23 02:53 40.77131 -113.15541 12469 ft 168 kts 266°
2026-04-23 02:53 40.77020 -113.17075 12471 ft 168 kts 266°
2026-04-23 02:53 40.76908 -113.18609 12472 ft 168 kts 266°
2026-04-23 02:53 40.76797 -113.20137 12470 ft 167 kts 266°
2026-04-23 02:54 40.76686 -113.21665 12472 ft 167 kts 266°
2026-04-23 02:54 40.76574 -113.23194 12471 ft 167 kts 266°
2026-04-23 02:54 40.76463 -113.24720 12472 ft 167 kts 266°
2026-04-23 02:54 40.76350 -113.26249 12474 ft 168 kts 266°
2026-04-23 02:55 40.76238 -113.27780 12475 ft 168 kts 266°
2026-04-23 02:55 40.76124 -113.29316 12477 ft 168 kts 266°
2026-04-23 02:55 40.76010 -113.30874 12475 ft 168 kts 266°
2026-04-23 02:55 40.75895 -113.32409 12475 ft 168 kts 266°
2026-04-23 02:56 40.75783 -113.33948 12474 ft 169 kts 266°
2026-04-23 02:56 40.75667 -113.35490 12445 ft 171 kts 266°
2026-04-23 02:56 40.75553 -113.37046 12437 ft 170 kts 266°
2026-04-23 02:56 40.75437 -113.38592 12441 ft 169 kts 266°
2026-04-23 02:57 40.75323 -113.40131 12437 ft 169 kts 266°
2026-04-23 02:57 40.75207 -113.41671 12436 ft 169 kts 266°
2026-04-23 02:57 40.75093 -113.43210 12436 ft 169 kts 266°
2026-04-23 02:57 40.74976 -113.44754 12434 ft 169 kts 266°
2026-04-23 02:58 40.74862 -113.46298 12437 ft 169 kts 266°
2026-04-23 02:58 40.74744 -113.47844 12440 ft 169 kts 266°
2026-04-23 02:58 40.74628 -113.49390 12440 ft 170 kts 266°
2026-04-23 02:58 40.74511 -113.50936 12440 ft 170 kts 267°
2026-04-23 02:59 40.74394 -113.52482 12440 ft 170 kts 266°
2026-04-23 02:59 40.74277 -113.54029 12438 ft 170 kts 266°
2026-04-23 02:59 40.74159 -113.55581 12442 ft 170 kts 266°
2026-04-23 02:59 40.74041 -113.57131 12443 ft 170 kts 266°
2026-04-23 03:00 40.73923 -113.58681 12447 ft 170 kts 266°
2026-04-23 03:00 40.73805 -113.60231 12450 ft 170 kts 266°
2026-04-23 03:00 40.73686 -113.61782 12453 ft 170 kts 266°
2026-04-23 03:00 40.73568 -113.63333 12459 ft 170 kts 266°
2026-04-23 03:01 40.73448 -113.64883 12460 ft 170 kts 266°
2026-04-23 03:01 40.73330 -113.66433 12464 ft 170 kts 266°
2026-04-23 03:01 40.73209 -113.67985 12467 ft 170 kts 266°
2026-04-23 03:01 40.73091 -113.69534 12469 ft 170 kts 266°
2026-04-23 03:02 40.72970 -113.71087 12473 ft 170 kts 266°
2026-04-23 03:02 40.72851 -113.72639 12467 ft 170 kts 266°
2026-04-23 03:02 40.72729 -113.74191 12468 ft 170 kts 266°
2026-04-23 03:02 40.72611 -113.75740 12474 ft 170 kts 267°
2026-04-23 03:03 40.72553 -113.77292 12475 ft 169 kts 270°
2026-04-23 03:03 40.72499 -113.78848 12484 ft 170 kts 269°
2026-04-23 03:03 40.72443 -113.80427 12488 ft 170 kts 269°
2026-04-23 03:03 40.72385 -113.81989 12489 ft 170 kts 269°
2026-04-23 03:04 40.72329 -113.83549 12489 ft 171 kts 269°
2026-04-23 03:04 40.72271 -113.85110 12495 ft 171 kts 269°
2026-04-23 03:04 40.72213 -113.86674 12495 ft 171 kts 269°
2026-04-23 03:04 40.72156 -113.88236 12495 ft 171 kts 269°
2026-04-23 03:05 40.72097 -113.89801 12498 ft 171 kts 269°
2026-04-23 03:05 40.72040 -113.91366 12499 ft 171 kts 269°
2026-04-23 03:05 40.71982 -113.92932 12499 ft 171 kts 269°
2026-04-23 03:05 40.71923 -113.94500 12498 ft 171 kts 269°
2026-04-23 03:06 40.71864 -113.96066 12500 ft 171 kts 269°
2026-04-23 03:06 40.71805 -113.97633 12499 ft 171 kts 269°
2026-04-23 03:06 40.71747 -113.99196 12499 ft 171 kts 269°
2026-04-23 03:06 40.71687 -114.00759 12502 ft 171 kts 269°
2026-04-23 03:07 40.71627 -114.02319 12500 ft 171 kts 269°
2026-04-23 03:07 40.71569 -114.03882 12498 ft 171 kts 269°
2026-04-23 03:07 40.71509 -114.05443 12499 ft 170 kts 269°
2026-04-23 03:07 40.71448 -114.07001 12499 ft 170 kts 269°
2026-04-23 03:08 40.71389 -114.08562 12499 ft 171 kts 269°
2026-04-23 03:08 40.71328 -114.10121 12499 ft 170 kts 269°
2026-04-23 03:08 40.71266 -114.11677 12496 ft 170 kts 270°
2026-04-23 03:08 40.71207 -114.13227 12499 ft 169 kts 270°
2026-04-23 03:09 40.71147 -114.14777 12500 ft 169 kts 269°
2026-04-23 03:09 40.71086 -114.16328 12499 ft 169 kts 270°
2026-04-23 03:09 40.71024 -114.17874 12494 ft 169 kts 270°
2026-04-23 03:09 40.70964 -114.19420 12495 ft 169 kts 269°
2026-04-23 03:10 40.70922 -114.20460 12496 ft 169 kts 269°
2026-04-23 03:10 40.70862 -114.22001 12499 ft 168 kts 270°
2026-04-23 03:10 40.70800 -114.23532 12497 ft 167 kts 270°
2026-04-23 03:10 40.70740 -114.25060 12496 ft 167 kts 270°
2026-04-23 03:11 40.70678 -114.26586 12500 ft 167 kts 269°
2026-04-23 03:11 40.70617 -114.28118 12496 ft 168 kts 270°
2026-04-23 03:11 40.70553 -114.29648 12502 ft 167 kts 270°
2026-04-23 03:11 40.70492 -114.31177 12493 ft 167 kts 270°
2026-04-23 03:12 40.70436 -114.32706 12502 ft 167 kts 270°
2026-04-23 03:12 40.70370 -114.34240 12500 ft 168 kts 269°
2026-04-23 03:12 40.70303 -114.35780 12499 ft 169 kts 270°
2026-04-23 03:12 40.70239 -114.37323 12502 ft 168 kts 270°
2026-04-23 03:13 40.70178 -114.38859 12501 ft 168 kts 270°
2026-04-23 03:13 40.70114 -114.40391 12500 ft 167 kts 270°
2026-04-23 03:13 40.70051 -114.41922 12501 ft 167 kts 270°
2026-04-23 03:13 40.69987 -114.43455 12498 ft 168 kts 269°
2026-04-23 03:14 40.69923 -114.44988 12501 ft 167 kts 270°
2026-04-23 03:14 40.69859 -114.46516 12502 ft 167 kts 270°
2026-04-23 03:14 40.69796 -114.48046 12502 ft 167 kts 270°
2026-04-23 03:14 40.69731 -114.49574 12506 ft 167 kts 269°
2026-04-23 03:15 40.69667 -114.51108 12507 ft 168 kts 270°
2026-04-23 03:15 40.69601 -114.52643 12507 ft 168 kts 269°
2026-04-23 03:15 40.69534 -114.54177 12505 ft 168 kts 270°
2026-04-23 03:15 40.69470 -114.55709 12502 ft 167 kts 270°
2026-04-23 03:16 40.69404 -114.57230 12505 ft 167 kts 270°
2026-04-23 03:16 40.69340 -114.58759 12504 ft 167 kts 269°
2026-04-23 03:16 40.69211 -114.61812 12516 ft 167 kts 269°
2026-04-23 03:17 40.69139 -114.63348 12520 ft 169 kts 270°
2026-04-23 03:17 40.69072 -114.64896 12517 ft 169 kts 269°
2026-04-23 03:17 40.69005 -114.66442 12516 ft 169 kts 270°
2026-04-23 03:17 40.68939 -114.67985 12516 ft 168 kts 270°
2026-04-23 03:18 40.68872 -114.69522 12514 ft 168 kts 270°
2026-04-23 03:18 40.68804 -114.71058 12517 ft 168 kts 270°
2026-04-23 03:18 40.68737 -114.72591 12516 ft 168 kts 270°
2026-04-23 03:18 40.68669 -114.74124 12515 ft 167 kts 270°
2026-04-23 03:19 40.68602 -114.75653 12515 ft 167 kts 269°
2026-04-23 03:19 40.68533 -114.77179 12511 ft 167 kts 269°
2026-04-23 03:19 40.68466 -114.78702 12511 ft 166 kts 270°
2026-04-23 03:19 40.68398 -114.80215 12512 ft 165 kts 270°
2026-04-23 03:20 40.68330 -114.81733 12509 ft 166 kts 270°
2026-04-23 03:20 40.68259 -114.83261 12516 ft 168 kts 270°
2026-04-23 03:20 40.68191 -114.84804 12518 ft 169 kts 270°
2026-04-23 03:20 40.68120 -114.86342 12516 ft 168 kts 270°
2026-04-23 03:21 40.68052 -114.87879 12516 ft 168 kts 270°
2026-04-23 03:21 40.67981 -114.89413 12513 ft 168 kts 270°
2026-04-23 03:21 40.67959 -114.90939 12507 ft 166 kts 278°
2026-04-23 03:21 40.68254 -114.92394 12510 ft 165 kts 292°
2026-04-23 03:22 40.68836 -114.93689 12511 ft 165 kts 307°
2026-04-23 03:22 40.69557 -114.94869 12515 ft 165 kts 306°
2026-04-23 03:22 40.70254 -114.96073 12516 ft 165 kts 306°
2026-04-23 03:22 40.70958 -114.97269 12513 ft 165 kts 306°
2026-04-23 03:23 40.71665 -114.98464 12514 ft 165 kts 306°
2026-04-23 03:23 40.72370 -114.99657 12519 ft 165 kts 306°
2026-04-23 03:23 40.73068 -115.00835 12517 ft 161 kts 306°
2026-04-23 03:23 40.73754 -115.01999 12512 ft 157 kts 306°
2026-04-23 03:24 40.74419 -115.03124 12510 ft 155 kts 306°
2026-04-23 03:24 40.75076 -115.04241 12488 ft 154 kts 306°
2026-04-23 03:24 40.75745 -115.05373 12363 ft 159 kts 305°
2026-04-23 03:24 40.76436 -115.06545 12142 ft 165 kts 306°
2026-04-23 03:25 40.77151 -115.07760 11890 ft 170 kts 306°
2026-04-23 03:25 40.77880 -115.08997 11639 ft 171 kts 306°
2026-04-23 03:25 40.78623 -115.10260 11404 ft 178 kts 306°
2026-04-23 03:25 40.79392 -115.11563 11158 ft 181 kts 306°
2026-04-23 03:26 40.80166 -115.12878 10913 ft 182 kts 305°
2026-04-23 03:26 40.80945 -115.14202 10670 ft 183 kts 305°
2026-04-23 03:26 40.81719 -115.15533 10419 ft 182 kts 305°
2026-04-23 03:26 40.82503 -115.16847 10180 ft 183 kts 305°
2026-04-23 03:27 40.83281 -115.18172 9931 ft 183 kts 305°
2026-04-23 03:27 40.84061 -115.19504 9667 ft 184 kts 305°
2026-04-23 03:27 40.84840 -115.20831 9464 ft 181 kts 305°
2026-04-23 03:27 40.85603 -115.22133 9328 ft 178 kts 305°
2026-04-23 03:28 40.86359 -115.23418 9161 ft 177 kts 305°
2026-04-23 03:28 40.87115 -115.24712 9036 ft 175 kts 305°
2026-04-23 03:28 40.87852 -115.25970 9028 ft 171 kts 305°
2026-04-23 03:28 40.88569 -115.27195 9024 ft 167 kts 305°
2026-04-23 03:29 40.89276 -115.28401 9025 ft 165 kts 305°
2026-04-23 03:29 40.89974 -115.29603 9023 ft 164 kts 305°
2026-04-23 03:29 40.90675 -115.30795 9024 ft 165 kts 304°
2026-04-23 03:29 40.91375 -115.31991 9023 ft 164 kts 305°
2026-04-23 03:30 40.92071 -115.33182 9022 ft 163 kts 304°
2026-04-23 03:30 40.92762 -115.34366 9020 ft 162 kts 304°
2026-04-23 03:30 40.93283 -115.35665 9016 ft 160 kts 287°
2026-04-23 03:30 40.93488 -115.37113 9006 ft 161 kts 273°
2026-04-23 03:31 40.93361 -115.38584 9007 ft 162 kts 259°
2026-04-23 03:31 40.92911 -115.39966 9008 ft 166 kts 243°
2026-04-23 03:31 40.92149 -115.41138 9005 ft 171 kts 227°
2026-04-23 03:31 40.91252 -115.42160 9008 ft 170 kts 228°
2026-04-23 03:32 40.90376 -115.43215 9005 ft 170 kts 228°
2026-04-23 03:32 40.89481 -115.44268 9008 ft 170 kts 227°
2026-04-23 03:32 40.88595 -115.45312 9008 ft 171 kts 227°
2026-04-23 03:32 40.87704 -115.46358 9007 ft 171 kts 228°
2026-04-23 03:33 40.86813 -115.47401 9009 ft 171 kts 227°
2026-04-23 03:33 40.85925 -115.48450 9005 ft 171 kts 229°
2026-04-23 03:33 40.85243 -115.49686 9004 ft 165 kts 248°
2026-04-23 03:33 40.84886 -115.51105 9005 ft 162 kts 263°
2026-04-23 03:34 40.84858 -115.52582 9000 ft 161 kts 275°
2026-04-23 03:34 40.84900 -115.54090 8825 ft 169 kts 273°
2026-04-23 03:34 40.84932 -115.55669 8590 ft 174 kts 274°
2026-04-23 03:34 40.84972 -115.57262 8344 ft 173 kts 273°
2026-04-23 03:35 40.85011 -115.58827 8109 ft 169 kts 273°
2026-04-23 03:35 40.85052 -115.60368 7878 ft 168 kts 273°
2026-04-23 03:35 40.85048 -115.61901 7650 ft 167 kts 265°
2026-04-23 03:35 40.84809 -115.63405 7427 ft 167 kts 261°
2026-04-23 03:36 40.84606 -115.64912 7204 ft 167 kts 262°
2026-04-23 03:36 40.84399 -115.66424 6985 ft 168 kts 262°
2026-04-23 03:36 40.84186 -115.67943 6757 ft 169 kts 262°
2026-04-23 03:36 40.83969 -115.69474 6502 ft 170 kts 261°
2026-04-23 03:37 40.83752 -115.71011 6236 ft 172 kts 260°
2026-04-23 03:37 40.83535 -115.72575 5956 ft 174 kts 258°
2026-04-23 03:37 40.83316 -115.74096 5708 ft 162 kts 258°
2026-04-23 03:37 40.83114 -115.75512 5497 ft 152 kts 259°
2026-04-23 03:38 40.82933 -115.76804 5308 ft 130 kts 259°
2026-04-23 03:38 40.82746 -115.77878 5146 ft 110 kts 248°
2026-04-23 03:38 40.82468 -115.78669 5074 ft 78 kts 243°
2026-04-23 03:38 40.82301 -115.79244 5062 ft 61 kts 251°
2026-04-23 03:39 40.82220 -115.79549 5059 ft 8 kts 38°
2026-04-23 03:39 40.82265 -115.79512 5056 ft 10 kts 357°
2026-04-23 03:39 40.82335 -115.79518 5062 ft 10 kts 45°
2026-04-23 03:39 40.82363 -115.79441 5059 ft 10 kts 68°
2026-04-23 03:40 40.82397 -115.79328 5064 ft 17 kts 69°
2026-04-23 03:40 40.82446 -115.79158 5059 ft 22 kts 67°
2026-04-23 03:40 40.82506 -115.78962 5067 ft 23 kts 70°
2026-04-23 03:40 40.82562 -115.78773 5069 ft 21 kts 67°
2026-04-23 03:41 40.82611 -115.78607 5071 ft 18 kts 71°
2026-04-23 03:41 40.82651 -115.78471 5075 ft 14 kts 69°
2026-04-23 03:41 40.82692 -115.78330 5078 ft 19 kts 68°
2026-04-23 03:41 40.82739 -115.78180 5076 ft 12 kts 71°
2026-04-23 03:42 40.82743 -115.78067 5073 ft 13 kts 76°
2026-04-23 03:42 40.82765 -115.77996 5073 ft 12 kts 70°
2026-04-23 03:42 40.82802 -115.77915 5074 ft 9 kts 347°
2026-04-23 03:42 40.82848 -115.77945 5075 ft 5 kts 11°
2026-04-23 03:43 40.82871 -115.77957 5075 ft 2 kts 334°
2026-04-23 03:43 40.82873 -115.77958 5075 ft 0 kts 334°
2026-04-23 03:43 40.82888 -115.78004 5076 ft 8 kts 250°
2026-04-23 03:43 40.82870 -115.78054 5077 ft 0 kts 252°
2026-04-23 03:44 40.82866 -115.78077 5077 ft 11 kts 258°
2026-04-23 03:44 40.82850 -115.78198 5080 ft 14 kts 219°
2026-04-23 03:44 40.82760 -115.78124 5075 ft 20 kts 149°
2026-04-23 03:44 40.82677 -115.78067 5071 ft 0 kts 210°
2026-04-23 03:45 40.82668 -115.78076 5071 ft 8 kts 219°
2026-04-23 03:45 40.82614 -115.78194 5069 ft 20 kts 243°
2026-04-23 03:45 40.82559 -115.78378 5070 ft 20 kts 248°
2026-04-23 03:46 40.82554 -115.78392 5070 ft 0 kts 249°
2026-04-23 03:49 40.82556 -115.78399 5070 ft 4 kts 318°
2026-04-23 03:50 40.82575 -115.78347 5070 ft 10 kts 71°
2026-04-23 03:50 40.82606 -115.78238 5070 ft 17 kts 69°
2026-04-23 03:50 40.82670 -115.78099 5071 ft 18 kts 14°
2026-04-23 03:50 40.82773 -115.78135 5076 ft 12 kts 322°
2026-04-23 03:51 40.82821 -115.78199 5080 ft 8 kts 319°
2026-04-23 03:51 40.82834 -115.78244 5081 ft 6 kts 247°
2026-04-23 03:51 40.82821 -115.78267 5082 ft 0 kts 221°
2026-04-23 03:51 40.82820 -115.78267 5082 ft 0 kts 221°